If you wish to contribute or participate in the discussions about articles you are invited to join SKYbrary as a registered user

 Actions

RAAF Base Richmond

From SKYbrary Wiki

YSRI /
Revision as of 19:57, 30 January 2017 by Timo.Kouwenhoven (talk | contribs)
(diff) ← Older revision | Latest revision (diff) | Newer revision → (diff)
Airport
ICAO: YSRI – IATA: RCM
Summary
Name RAAF Base Richmond
Region Asia and Pacific
Territory Australia AU.gif
Location Hawkesbury, New South Wales
Serving Richmond
Elevation 0.422 m
1.383 ft
1.383 ft0.422 m
Coordinates 33° 36' 15.34" S, 150° 46' 55.35" E
Runways
Designator Length Width Surface ROPS
10/28 2134 m7,001.312 ft
45 m147.638 ft
ASP yes/yes


METAR
Observation YSRI 182200Z AUTO 13001KT 9999 // NCD 18/07 Q1015
Station Richmond Aus-Afb
Date/Time 18 October 2019 22:00:00
Wind direction 130°
Wind speed 01 kts
Lowest cloud amount no clouds detected
Temperature 18°C
Dew point 7°C
Humidity 48%
QNH 1015 hPa
Weather condition n/a

Royal Australian Air Force base on northern outskirts of Sydney; home to the Air Lift Group.

Climatology

Temperate Marine climate/Oceanic climate (Köppen climate classification Cfb). Moderately cool summer and comparatively warm winter

Maps

Terrain

Loading map...

Airport Layout

Loading map...


Accidents & Serious Incidents at or in vicinity of YSRI

None on SKYbrary